When you browse on this site, cookies collect data to enhance your experience and personalize the content and advertising you see.
Visit our Privacy Policy to learn more. By continuing to use the site, you agree to this use of cookies and data.
  • In Slovakia
  • List of Countries
  • For 7 days
  • Water Temperature
  • Satellite Maps
  • Weather Map
  • Weather Widgets
  • user-avatar
    Login

    Hourly Weather Luanda

    Today, 18 November, Sunday

    Time Temperature Precipitation Wind Pressure Humidity
    00:00 +28°C° 0 mm 2 mps 754 mmHg 85%
    01:00 +27°C° 0 mm 1 mps 754 mmHg 86%
    02:00 +27°C° 0 mm 2 mps 753 mmHg 86%
    03:00 +27°C° 0 mm 2 mps 753 mmHg 86%
    04:00 +27°C° 0 mm 2 mps 753 mmHg 86%
    05:00 +28°C° 0 mm 2 mps 753 mmHg 84%
    06:00 +28°C° 0 mm 2 mps 754 mmHg 83%
    07:00 +28°C° 0 mm 2 mps 754 mmHg 81%
    08:00 +29°C° 0 mm 2 mps 754 mmHg 76%
    09:00 +30°C° 0 mm 1 mps 754 mmHg 72%
    10:00 +31°C° 0 mm 1 mps 754 mmHg 67%
    11:00 +32°C° 0 mm 2 mps 753 mmHg 64%
    12:00 +33°C° 0 mm 3 mps 753 mmHg 61%
    13:00 +34°C° 0 mm 3 mps 753 mmHg 59%
    14:00 +34°C° 0 mm 4 mps 752 mmHg 59%
    15:00 +34°C° 0 mm 4 mps 752 mmHg 58%
    16:00 +34°C° 0 mm 4 mps 751 mmHg 58%
    17:00 +33°C° 0 mm 4 mps 752 mmHg 64%
    18:00 +32°C° 0 mm 4 mps 752 mmHg 70%
    19:00 +29°C° 0 mm 3 mps 752 mmHg 75%
    20:00 +29°C° 0 mm 3 mps 753 mmHg 77%
    21:00 +29°C° 0 mm 3 mps 753 mmHg 78%
    22:00 +29°C° 0 mm 3 mps 753 mmHg 79%
    23:00 +29°C° 0 mm 3 mps 753 mmHg 80%

    Tomorrow, 19 November, Monday

    Time Temperature Precipitation Wind Pressure Humidity
    00:00 +28°C° 0 mm 3 mps 753 mmHg 80%
    01:00 +28°C° 0 mm 3 mps 753 mmHg 81%
    02:00 +28°C° 0 mm 3 mps 753 mmHg 82%
    03:00 +28°C° 0 mm 3 mps 753 mmHg 83%
    04:00 +28°C° 0 mm 3 mps 753 mmHg 84%
    05:00 +28°C° 0 mm 2 mps 753 mmHg 83%
    06:00 +28°C° 0 mm 2 mps 753 mmHg 82%
    07:00 +28°C° 0 mm 1 mps 753 mmHg 80%
    08:00 +31°C° 0 mm 1 mps 753 mmHg 71%
    09:00 +33°C° 0 mm 1 mps 754 mmHg 62%
    10:00 +33°C° 0 mm 0 mps 754 mmHg 52%
    11:00 +35°C° 0 mm 1 mps 753 mmHg 50%
    12:00 +37°C° 0 mm 3 mps 752 mmHg 48%
    13:00 +37°C° 0 mm 4 mps 752 mmHg 46%
    14:00 +36°C° 0.4 mm 4 mps 751 mmHg 52%
    15:00 +35°C° 0.4 mm 5 mps 751 mmHg 58%
    16:00 +33°C° 0.4 mm 6 mps 750 mmHg 64%
    17:00 +32°C° 0 mm 5 mps 751 mmHg 68%
    18:00 +30°C° 0 mm 5 mps 751 mmHg 72%
    19:00 +29°C° 0 mm 5 mps 752 mmHg 76%
    20:00 +29°C° 0 mm 4 mps 753 mmHg 77%
    21:00 +29°C° 0 mm 4 mps 753 mmHg 79%
    22:00 +29°C° 0 mm 3 mps 754 mmHg 80%
    23:00 +29°C° 0.7 mm 4 mps 754 mmHg 82%

    Day after tomorrow, 20 November, Tuesday

    Time Temperature Precipitation Wind Pressure Humidity
    00:00 +28°C° 0.7 mm 4 mps 753 mmHg 83%
    01:00 +28°C° 0.7 mm 4 mps 753 mmHg 85%
    02:00 +28°C° 0.7 mm 4 mps 753 mmHg 86%
    03:00 +28°C° 0.7 mm 4 mps 753 mmHg 86%
    04:00 +28°C° 0.7 mm 4 mps 752 mmHg 87%
    05:00 +28°C° 0.1 mm 4 mps 753 mmHg 85%
    06:00 +28°C° 0.1 mm 4 mps 753 mmHg 84%
    07:00 +28°C° 0.1 mm 4 mps 754 mmHg 83%
    08:00 +29°C° 0 mm 3 mps 754 mmHg 80%
    09:00 +29°C° 0 mm 3 mps 754 mmHg 77%
    10:00 +29°C° 0 mm 3 mps 755 mmHg 75%
    11:00 +30°C° 0 mm 3 mps 754 mmHg 71%
    12:00 +31°C° 0 mm 3 mps 753 mmHg 67%
    13:00 +33°C° 0 mm 3 mps 752 mmHg 63%
    14:00 +33°C° 0 mm 4 mps 752 mmHg 64%
    15:00 +33°C° 0 mm 4 mps 752 mmHg 65%
    16:00 +33°C° 0 mm 5 mps 751 mmHg 65%
    17:00 +32°C° 0 mm 4 mps 752 mmHg 69%
    18:00 +30°C° 0 mm 4 mps 752 mmHg 74%
    19:00 +29°C° 0 mm 4 mps 753 mmHg 78%
    20:00 +29°C° 0 mm 3 mps 754 mmHg 79%
    21:00 +28°C° 0 mm 3 mps 754 mmHg 80%
    22:00 +28°C° 0 mm 3 mps 754 mmHg 81%
    23:00 +28°C° 0 mm 3 mps 754 mmHg 82%

    21 November, Wednesday

    Time Temperature Precipitation Wind Pressure Humidity
    00:00 +28°C° 0 mm 3 mps 753 mmHg 83%
    01:00 +28°C° 0 mm 3 mps 753 mmHg 84%
    02:00 +28°C° 0 mm 3 mps 753 mmHg 84%
    03:00 +28°C° 0 mm 3 mps 753 mmHg 84%
    04:00 +28°C° 0 mm 3 mps 752 mmHg 83%
    05:00 +28°C° 0 mm 3 mps 753 mmHg 83%
    06:00 +28°C° 0 mm 3 mps 753 mmHg 82%
    07:00 +28°C° 0 mm 3 mps 754 mmHg 81%
    08:00 +29°C° 0 mm 3 mps 754 mmHg 76%
    09:00 +30°C° 0 mm 2 mps 754 mmHg 71%
    10:00 +30°C° 0 mm 2 mps 755 mmHg 66%
    11:00 +32°C° 0 mm 2 mps 754 mmHg 61%
    12:00 +34°C° 0 mm 2 mps 753 mmHg 56%
    13:00 +35°C° 0 mm 2 mps 752 mmHg 51%
    14:00 +35°C° 0 mm 2 mps 752 mmHg 52%
    15:00 +35°C° 0 mm 3 mps 751 mmHg 54%
    16:00 +35°C° 0 mm 4 mps 751 mmHg 55%
    17:00 +33°C° 0 mm 4 mps 751 mmHg 63%
    18:00 +32°C° 0 mm 4 mps 752 mmHg 70%
    19:00 +29°C° 0 mm 4 mps 752 mmHg 77%
    20:00 +29°C° 0 mm 4 mps 753 mmHg 79%
    21:00 +29°C° 0 mm 3 mps 753 mmHg 81%
    22:00 +28°C° 0 mm 3 mps 754 mmHg 83%
    23:00 +28°C° 0 mm 3 mps 753 mmHg 84%

    22 November, Thursday

    Time Temperature Precipitation Wind Pressure Humidity
    00:00 +28°C° 0 mm 2 mps 753 mmHg 85%
    01:00 +28°C° 0 mm 2 mps 752 mmHg 86%
    02:00 +28°C° 0 mm 2 mps 752 mmHg 86%
    03:00 +28°C° 0 mm 2 mps 752 mmHg 86%
    04:00 +28°C° 0 mm 2 mps 752 mmHg 86%
    05:00 +28°C° 0.1 mm 2 mps 752 mmHg 85%
    06:00 +28°C° 0.1 mm 2 mps 753 mmHg 84%
    07:00 +28°C° 0.1 mm 2 mps 754 mmHg 83%
    08:00 +29°C° 0.1 mm 2 mps 754 mmHg 79%
    09:00 +30°C° 0.1 mm 2 mps 754 mmHg 76%
    10:00 +30°C° 0.1 mm 2 mps 754 mmHg 73%
    11:00 +31°C° 0 mm 2 mps 753 mmHg 67%
    12:00 +34°C° 0 mm 3 mps 752 mmHg 62%
    13:00 +35°C° 0 mm 4 mps 752 mmHg 57%
    14:00 +34°C° 0 mm 4 mps 751 mmHg 59%
    15:00 +34°C° 0 mm 5 mps 751 mmHg 61%
    16:00 +33°C° 0 mm 5 mps 751 mmHg 63%
    17:00 +32°C° 0 mm 5 mps 752 mmHg 68%
    18:00 +30°C° 0 mm 4 mps 752 mmHg 73%
    19:00 +29°C° 0 mm 4 mps 753 mmHg 77%
    20:00 +29°C° 0 mm 3 mps 753 mmHg 79%
    21:00 +28°C° 0 mm 3 mps 754 mmHg 80%
    22:00 +28°C° 0 mm 2 mps 754 mmHg 82%
    23:00 +28°C° 0 mm 2 mps 754 mmHg 83%

    23 November, Friday

    Time Temperature Precipitation Wind Pressure Humidity
    00:00 +27°C° 0 mm 2 mps 753 mmHg 85%
    01:00 +27°C° 0 mm 2 mps 753 mmHg 86%
    02:00 +27°C° 0 mm 2 mps 752 mmHg 86%
    03:00 +27°C° 0 mm 2 mps 752 mmHg 87%
    04:00 +27°C° 0 mm 1 mps 752 mmHg 88%
    05:00 +27°C° 0 mm 1 mps 753 mmHg 85%
    06:00 +28°C° 0 mm 1 mps 753 mmHg 82%
    07:00 +28°C° 0 mm 1 mps 753 mmHg 79%
    08:00 +30°C° 0 mm 1 mps 754 mmHg 70%
    09:00 +32°C° 0 mm 1 mps 754 mmHg 60%
    10:00 +35°C° 0 mm 1 mps 754 mmHg 51%
    11:00 +36°C° 0 mm 2 mps 753 mmHg 48%
    12:00 +37°C° 0 mm 3 mps 752 mmHg 46%
    13:00 +38°C° 0 mm 4 mps 751 mmHg 43%
    14:00 +36°C° 0 mm 5 mps 751 mmHg 48%
    15:00 +35°C° 0 mm 5 mps 751 mmHg 53%
    16:00 +34°C° 0 mm 6 mps 750 mmHg 59%
    17:00 +33°C° 0 mm 6 mps 751 mmHg 64%
    18:00 +30°C° 0 mm 5 mps 752 mmHg 70%
    19:00 +29°C° 0 mm 5 mps 752 mmHg 76%
    20:00 +29°C° 0 mm 4 mps 753 mmHg 77%
    21:00 +29°C° 0 mm 4 mps 753 mmHg 78%
    22:00 +29°C° 0 mm 3 mps 754 mmHg 79%
    23:00 +29°C° 0.1 mm 3 mps 753 mmHg 78%
    Show more